Showing default

QIANFAN-54, 62255

Orbit data source: Space-Track

QIANFAN-54, 62255 is a Chinese payload satellite in LEO that was launched on Thu, 05 Dec 2024 UTC via a CHANG ZHENG 6A launch vehicle from the Taiyaun Space Center, China (TSC). Payload-class satellites include a variety of spacecraft equipped with specific instruments for various scientific and technological missions. These include communications satellites like Starlink; space stations such as the ISS; scientific satellites like the Hubble; Earth observation satellites from companies like Planet Labs, Umbra, and HawkEye 360; GPS; miniature CubeSats for education and research; and military/defense satellites.

Loading next visibility...
Identifier
62255, 2024-232U
Orbit
LEO
Country
Flag of CNCN / PRC
Related business
Manufacturer
SECM
Mission
Operational Commercial Communications
Bus & Motor
QIANFAN, Unknown motor
Mass
267 kg wet, ~267 kg dry
Launch date (UTC)
2024-12-05 (11 months ago)
Launch vehicle
CHANG ZHENG 6A
Launch site
Taiyaun Space Center, China (TSC)
Object type
Payload
Rocket body
Debris
Shape & HBR
Box + 1 Pan, 5.0 m
Radar Cross Section
13.200 m², Large (>1 m²)

Expand to show TLE details & history
Last TLE update: 9 hours ago

TLE from 9 hours ago
0 QIANFAN-54
1 62255U 24232U   25307.86583717  .00000167  00000-0  23986-3 0  9990
2 62255  89.0038  44.8101 0002012  41.7539 318.3765 13.50983311 94169
Epoch: 2025-11-03T20:46Z
TLE epoch observation values (Epoch: 2025-11-03T20:46:48.331Z)
Latitude
-0.00006°
Longitude
49.74765°
Altitude
1,070.476 km
Speed
7.317 km/s
True Right ascension
02h 59m 14s
True Declination
0° 00' 00"
Sunlit
Object was in full shadow at epoch
Visualization orbit readout
Latitude
Unknown
Longitude
Unknown
Altitude
Unknown
Speed
Unknown
Apparent Right ascension
Unknown
Apparent Declination
Unknown
Sunlit
N/A
Visualization observer readout
Local Sidereal Time
01:14:36
Azimuth
Unknown
Elevation
Unknown
Doppler factor
Unknown
Orbital elements
Apogee altitude
1,067.192 km
Perigee altitude
1,064.196 km
Semi-major axis
7,443.831 km
Eccentricity
0.0002
Inclination
89.0038°
RAAN
44.8101°
Arg. of periapsis
41.7539°
True anomaly
318.36118°
Mean anomaly
318.3765°
Eccentric anomaly
318.36884°
Mean motion
3.37947 °/min
Orbital period
106.53 mins
BSTAR
0.00023986
Loading maneuver chart data...
Computing Atmospheric mass density...
Loading historical data...
Loading historical data...
Loading historical data...
Loading historical data...
Loading historical data...
Loading historical data...
Loading historical data...

Documentation

Showing up to 5 results
|